Flag for Germany Weather past 2 weeks in Straubing, Bavaria, Germany

Now
40 °F

Partly sunny.


Feels Like: 38 °F
Forecast: 31 / 48 °F
Wind: 3 mph from West

Location: Straubing

Current Time: Mar 6, 2015 at 11:02:20 AM

Latest Report: Mar 6, 2015 at 10:00 AM


Visibility: 16 mi

Pressure: 30.67 "Hg

Humidity: 71%

Dew point: 31 °F

Location of StraubingLocation

Historic Weather in Straubing — Graph

°F

Straubing temperature yesterday

Maximum temperature yesterday: 42 °F (at 4:00 PM)
Minimum temperature yesterday: 33 °F (at 5:00 AM)
Average temperature yesterday: 37 °F

Past Weeks' High & Low Weather Summary

 TemperatureHumidityPressure
High47 °F (Mar 2, 8:00 AM)100% (Feb 20, 2:00 AM)30.67 "Hg (Feb 20, 2:00 AM)
Low24 °F (Feb 21, 8:00 AM)44% (Feb 27, 5:00 PM)29.50 "Hg (Feb 21, 3:00 PM)
Average36 °F84%30.05 "Hg
* Reported Feb 19 9:00 AM — Mar 6 9:00 AM, Straubing, Weather by CustomWeather, © 2015

Note: Actual official high and low records may vary slightly from our data, if they occured in-between our weather recording intervals... More about our weather records

Advertising

Straubing weather history for previous 24 hours

 ConditionsComfort  
Time TempWeatherWind HumidityBarometerVisibility
9:00 AM
Fri, Mar 6
38 °FOvercast.3 mph75%30.67 "Hg19 mi
8:00 AM34 °FSunny.3 mph81%30.66 "Hg22 mi
7:00 AM33 °FSunny.3 mph85%30.64 "Hg22 mi
6:00 AM33 °FOvercast.2 mph84%30.64 "Hg28 mi
5:00 AM35 °FOvercast.2 mph79%30.63 "Hg28 mi
4:00 AM35 °FOvercast.3 mph79%30.63 "Hg31 mi
3:00 AM35 °FOvercast.2 mph79%30.63 "Hg31 mi
2:00 AM36 °FOvercast.2 mph76%30.63 "Hg34 mi
1:00 AM36 °FOvercast.2 mph76%30.61 "Hg34 mi
12:00 AM36 °FOvercast.2 mph75%30.62 "Hg28 mi
9:00 PM
Thu, Mar 5
37 °FOvercast.1 mph63%30.60 "Hg22 mi
8:00 PM38 °FOvercast.3 mph56%30.59 "Hg43 mi
7:00 PM39 °FPassing clouds.2 mph54%30.57 "Hg43 mi
6:00 PM40 °FPassing clouds.5 mph54%30.55 "Hg40 mi
5:00 PM42 °FScattered clouds.5 mph49%30.53 "Hg19 mi
4:00 PM42 °FOvercast.7 mph47%30.53 "Hg37 mi
3:00 PM42 °FOvercast.6 mph58%30.52 "Hg22 mi
2:00 PM41 °FOvercast.5 mph66%30.52 "Hg40 mi
1:00 PM39 °FOvercast.6 mph72%30.53 "Hg34 mi
12:00 PM39 °FOvercast.6 mph71%30.52 "Hg37 mi
11:00 AM39 °FOvercast.6 mph75%30.52 "Hg37 mi
Weather by CustomWeather, © 2015

See weather overviewHow to use our weather pages